• In Netherlands
  • List of Countries
  • For 7 days
  • Water Temperature
  • Satellite Maps
  • Weather Map
  • Weather Widgets
  • user-avatar
    Login

    Hourly Weather Mazyr

    Today, 21 August, Monday

    Time Temperature Precipitation Wind Pressure Humidity
    00:00 +24°C° 0 mm 3 mps 746 mmHg 43%
    01:00 +22°C° 0 mm 3 mps 746 mmHg 44%
    02:00 +21°C° 0 mm 3 mps 746 mmHg 45%
    03:00 +21°C° 0 mm 2 mps 746 mmHg 46%
    04:00 +21°C° 0 mm 2 mps 746 mmHg 47%
    05:00 +22°C° 0 mm 1 mps 746 mmHg 47%
    06:00 +23°C° 0 mm 2 mps 746 mmHg 52%
    07:00 +23°C° 0 mm 2 mps 746 mmHg 56%
    08:00 +23°C° 0 mm 2 mps 746 mmHg 60%
    09:00 +23°C° 0 mm 2 mps 746 mmHg 61%
    10:00 +24°C° 0 mm 3 mps 746 mmHg 63%
    11:00 +24°C° 0 mm 3 mps 746 mmHg 64%
    12:00 +24°C° 0 mm 3 mps 746 mmHg 64%
    13:00 +25°C° 0 mm 4 mps 746 mmHg 63%
    14:00 +25°C° 0 mm 4 mps 746 mmHg 63%
    15:00 +23°C° 0.1 mm 4 mps 745 mmHg 65%
    16:00 +23°C° 0.1 mm 4 mps 745 mmHg 67%
    17:00 +23°C° 0.1 mm 5 mps 745 mmHg 69%
    18:00 +21°C° 0.9 mm 4 mps 745 mmHg 76%
    19:00 +19°C° 0.9 mm 4 mps 745 mmHg 82%
    20:00 +18°C° 0.9 mm 4 mps 745 mmHg 89%
    21:00 +17°C° 1.1 mm 4 mps 745 mmHg 91%
    22:00 +17°C° 1.1 mm 4 mps 745 mmHg 93%
    23:00 +15°C° 1.1 mm 4 mps 745 mmHg 94%

    Tomorrow, 22 August, Tuesday

    Time Temperature Precipitation Wind Pressure Humidity
    00:00 +15°C° 0.6 mm 4 mps 745 mmHg 94%
    01:00 +15°C° 0.6 mm 4 mps 745 mmHg 95%
    02:00 +14°C° 0.6 mm 4 mps 745 mmHg 95%
    03:00 +14°C° 0.5 mm 4 mps 744 mmHg 95%
    04:00 +14°C° 0.5 mm 4 mps 744 mmHg 95%
    05:00 +14°C° 0.5 mm 4 mps 744 mmHg 95%
    06:00 +14°C° 0.4 mm 4 mps 744 mmHg 94%
    07:00 +14°C° 0.4 mm 4 mps 744 mmHg 93%
    08:00 +14°C° 0.4 mm 4 mps 744 mmHg 92%
    09:00 +15°C° 0.9 mm 4 mps 744 mmHg 91%
    10:00 +15°C° 0.9 mm 4 mps 744 mmHg 91%
    11:00 +15°C° 0.9 mm 4 mps 744 mmHg 90%
    12:00 +15°C° 0.5 mm 4 mps 744 mmHg 89%
    13:00 +15°C° 0.5 mm 4 mps 744 mmHg 88%
    14:00 +17°C° 0.5 mm 4 mps 744 mmHg 87%
    15:00 +15°C° 0.5 mm 4 mps 743 mmHg 89%
    16:00 +16°C° 0.5 mm 3 mps 743 mmHg 90%
    17:00 +16°C° 0.5 mm 3 mps 743 mmHg 91%
    18:00 +16°C° 0.5 mm 3 mps 743 mmHg 92%
    19:00 +14°C° 0.5 mm 3 mps 743 mmHg 92%
    20:00 +14°C° 0.5 mm 3 mps 743 mmHg 93%
    21:00 +14°C° 0.3 mm 3 mps 743 mmHg 93%
    22:00 +14°C° 0.3 mm 3 mps 742 mmHg 93%
    23:00 +14°C° 0.3 mm 3 mps 742 mmHg 94%

    Day after tomorrow, 23 August, Wednesday

    Time Temperature Precipitation Wind Pressure Humidity
    00:00 +13°C° 1 mm 3 mps 742 mmHg 94%
    01:00 +13°C° 1 mm 3 mps 741 mmHg 94%
    02:00 +13°C° 1 mm 4 mps 741 mmHg 94%
    03:00 +13°C° 1.2 mm 4 mps 741 mmHg 94%
    04:00 +13°C° 1.2 mm 4 mps 741 mmHg 94%
    05:00 +13°C° 1.2 mm 4 mps 740 mmHg 94%
    06:00 +13°C° 0.6 mm 4 mps 740 mmHg 93%
    07:00 +13°C° 0.6 mm 5 mps 740 mmHg 93%
    08:00 +13°C° 0.6 mm 5 mps 740 mmHg 92%
    09:00 +13°C° 0.4 mm 5 mps 741 mmHg 90%
    10:00 +13°C° 0.4 mm 5 mps 741 mmHg 89%
    11:00 +13°C° 0.4 mm 6 mps 741 mmHg 87%
    12:00 +13°C° 0.5 mm 6 mps 741 mmHg 86%
    13:00 +14°C° 0.5 mm 6 mps 741 mmHg 85%
    14:00 +14°C° 0.5 mm 6 mps 741 mmHg 84%
    15:00 +13°C° 0.8 mm 5 mps 741 mmHg 85%
    16:00 +13°C° 0.8 mm 5 mps 741 mmHg 86%
    17:00 +13°C° 0.8 mm 5 mps 741 mmHg 87%
    18:00 +13°C° 1.1 mm 5 mps 741 mmHg 89%
    19:00 +13°C° 1.1 mm 5 mps 741 mmHg 90%
    20:00 +12°C° 1.1 mm 5 mps 741 mmHg 91%
    21:00 +11°C° 1.5 mm 6 mps 741 mmHg 92%
    22:00 +11°C° 1.5 mm 6 mps 740 mmHg 92%
    23:00 +11°C° 1.5 mm 6 mps 740 mmHg 92%

    24 August, Thursday

    Time Temperature Precipitation Wind Pressure Humidity
    00:00 +11°C° 1.7 mm 6 mps 740 mmHg 93%
    01:00 +11°C° 1.7 mm 6 mps 739 mmHg 93%
    02:00 +13°C° 1.7 mm 6 mps 739 mmHg 93%
    03:00 +13°C° 1.4 mm 6 mps 739 mmHg 93%
    04:00 +11°C° 1.4 mm 7 mps 739 mmHg 93%
    05:00 +11°C° 1.4 mm 7 mps 738 mmHg 93%
    06:00 +11°C° 1.8 mm 7 mps 738 mmHg 93%
    07:00 +11°C° 1.8 mm 8 mps 738 mmHg 93%
    08:00 +11°C° 1.8 mm 8 mps 738 mmHg 93%
    09:00 +11°C° 1.4 mm 8 mps 739 mmHg 93%
    10:00 +11°C° 1.4 mm 8 mps 739 mmHg 93%
    11:00 +11°C° 1.4 mm 8 mps 739 mmHg 92%
    12:00 +12°C° 0.9 mm 8 mps 740 mmHg 91%
    13:00 +12°C° 0.9 mm 8 mps 740 mmHg 90%
    14:00 +12°C° 0.9 mm 8 mps 740 mmHg 89%
    15:00 +14°C° 0.2 mm 7 mps 741 mmHg 88%
    16:00 +14°C° 0.2 mm 6 mps 741 mmHg 87%
    17:00 +15°C° 0.2 mm 6 mps 742 mmHg 86%
    18:00 +15°C° 0.1 mm 5 mps 743 mmHg 86%
    19:00 +15°C° 0.1 mm 5 mps 743 mmHg 85%
    20:00 +15°C° 0.1 mm 5 mps 744 mmHg 85%
    21:00 +14°C° 0 mm 5 mps 745 mmHg 86%
    22:00 +14°C° 0 mm 4 mps 745 mmHg 87%
    23:00 +13°C° 0 mm 4 mps 745 mmHg 88%

    25 August, Friday

    Time Temperature Precipitation Wind Pressure Humidity
    00:00 +13°C° 0 mm 4 mps 746 mmHg 89%
    01:00 +12°C° 0 mm 4 mps 746 mmHg 90%
    02:00 +11°C° 0 mm 4 mps 746 mmHg 91%
    03:00 +11°C° 0 mm 4 mps 747 mmHg 92%
    04:00 +10°C° 0 mm 3 mps 747 mmHg 94%
    05:00 +10°C° 0 mm 3 mps 748 mmHg 95%
    06:00 +11°C° 0 mm 3 mps 748 mmHg 89%
    07:00 +12°C° 0 mm 3 mps 749 mmHg 84%
    08:00 +13°C° 0 mm 3 mps 749 mmHg 78%
    09:00 +15°C° 0 mm 4 mps 749 mmHg 70%
    10:00 +18°C° 0 mm 4 mps 749 mmHg 61%
    11:00 +20°C° 0 mm 4 mps 750 mmHg 53%
    12:00 +21°C° 0 mm 4 mps 750 mmHg 50%
    13:00 +22°C° 0 mm 3 mps 750 mmHg 48%
    14:00 +24°C° 0 mm 3 mps 750 mmHg 45%
    15:00 +24°C° 0 mm 3 mps 750 mmHg 48%
    16:00 +24°C° 0 mm 2 mps 750 mmHg 51%
    17:00 +24°C° 0 mm 1 mps 750 mmHg 54%
    18:00 +22°C° 0 mm 1 mps 750 mmHg 59%
    19:00 +19°C° 0 mm 1 mps 750 mmHg 63%
    20:00 +15°C° 0 mm 0 mps 751 mmHg 68%
    21:00 +16°C° 0 mm 1 mps 751 mmHg 69%
    22:00 +15°C° 0 mm 1 mps 751 mmHg 69%
    23:00 +15°C° 0 mm 1 mps 751 mmHg 70%

    26 August, Saturday

    Time Temperature Precipitation Wind Pressure Humidity
    00:00 +15°C° 0 mm 1 mps 751 mmHg 70%
    01:00 +15°C° 0 mm 1 mps 751 mmHg 71%
    02:00 +14°C° 0 mm 2 mps 751 mmHg 71%
    03:00 +14°C° 0 mm 2 mps 751 mmHg 71%
    04:00 +14°C° 0 mm 2 mps 751 mmHg 71%
    05:00 +14°C° 0 mm 2 mps 751 mmHg 71%
    06:00 +15°C° 0 mm 2 mps 751 mmHg 68%
    07:00 +17°C° 0 mm 2 mps 751 mmHg 65%
    08:00 +19°C° 0 mm 2 mps 752 mmHg 61%
    09:00 +21°C° 0 mm 2 mps 751 mmHg 57%
    10:00 +24°C° 0 mm 3 mps 751 mmHg 52%
    11:00 +26°C° 0 mm 3 mps 751 mmHg 47%
    12:00 +27°C° 0 mm 3 mps 751 mmHg 46%
    13:00 +28°C° 0 mm 3 mps 751 mmHg 44%
    14:00 +29°C° 0 mm 4 mps 750 mmHg 42%
    15:00 +29°C° 0 mm 3 mps 750 mmHg 45%
    16:00 +29°C° 0 mm 3 mps 750 mmHg 48%
    17:00 +28°C° 0 mm 3 mps 750 mmHg 52%
    18:00 +27°C° 0 mm 3 mps 750 mmHg 56%
    19:00 +25°C° 0 mm 3 mps 750 mmHg 61%
    20:00 +22°C° 0 mm 3 mps 750 mmHg 66%
    21:00 +21°C° 0 mm 3 mps 750 mmHg 67%
    22:00 +21°C° 0 mm 3 mps 749 mmHg 67%
    23:00 +20°C° 0 mm 3 mps 749 mmHg 68%
    Show more